Theta_e
353 359 364 363 362 361 361 360 360 361 361 361 361 361 360 359 359 359 360 361 361 361 359 355 354 354 355 355 354 354 355 355 353 354 354 354 353 353 353 352 351 348 351
356 360 364 363 363 362 361 360 360 360 360 361 360 360 359 359 359 360 361 362 362 360 359 355 354 355 355 355 355 355 353 354 354 351 352 353 353 351 353 349 349 347 350
356 359 361 363 363 362 361 360 359 359 359 360 359 359 359 359 360 361 361 361 361 358 358 355 354 356 355 355 355 356 355 355 355 353 350 343 345 351 352 349 350 349 349
357 358 359 363 362 362 360 359 359 359 359 359 359 358 359 359 361 362 361 362 359 358 356 354 353 355 355 354 354 354 354 354 354 353 348 347 343 349 348 349 349 348 349
356 356 358 363 362 361 360 360 359 359 358 359 359 358 358 359 360 360 361 361 359 356 354 353 353 353 353 353 354 355 356 355 354 350 346 347 342 347 349 348 348 348 347
355 356 361 362 362 361 360 360 359 359 359 359 359 359 358 357 359 360 360 360 359 356 354 353 353 353 353 352 353 353 354 354 351 340 339 340 345 350 351 349 348 349 349
353 356 358 361 362 361 360 359 360 359 358 359 360 359 358 359 359 359 360 360 359 357 354 353 354 355 354 353 353 352 353 351 344 338 335 340 344 349 354 353 352 351 349
355 359 359 361 361 360 360 359 359 358 358 359 359 359 360 359 360 359 359 358 358 357 356 354 355 354 353 352 352 351 351 350 343 336 335 333 344 350 354 356 357 355 351
356 356 357 357 360 360 359 358 358 358 358 358 358 358 359 359 360 359 358 357 356 356 356 356 355 354 352 352 352 351 351 349 339 337 337 333 345 353 354 357 357 357 354
352 352 351 355 357 357 355 359 359 358 358 358 358 358 358 358 359 359 356 356 356 355 355 355 354 354 353 352 351 351 352 350 340 337 337 334 345 352 355 359 357 356 356
349 350 349 351 353 355 354 356 358 358 358 358 358 358 355 351 352 354 354 355 357 356 354 354 354 353 352 352 351 351 350 340 337 337 334 339 343 346 355 359 358 356 355
343 346 351 351 350 353 356 354 352 354 354 352 352 352 349 347 347 351 353 355 356 356 355 354 353 353 351 341 340 346 340 338 336 336 333 342 345 346 353 358 359 358 357
345 347 349 350 352 352 352 352 353 353 352 351 350 349 346 347 346 348 346 348 346 352 346 348 345 344 341 339 337 333 330 330 334 334 335 344 346 348 352 354 357 358 356
343 346 348 350 351 352 352 350 352 353 351 350 350 348 344 342 340 341 341 341 341 342 342 340 340 339 338 337 335 332 329 327 330 332 332 343 346 349 353 356 357 358 355
332 343 346 348 348 350 350 351 350 350 349 349 347 347 345 340 337 338 338 338 339 341 340 338 338 337 336 336 336 334 332 331 330 331 331 342 346 348 353 357 359 359 356
333 340 344 344 346 344 347 346 348 349 347 345 344 345 345 342 340 337 337 338 338 340 341 341 339 337 337 336 336 336 336 336 336 336 337 341 348 351 353 356 358 359 359
332 336 339 338 340 339 342 342 343 341 342 341 341 342 345 342 338 339 338 337 340 340 340 340 339 337 336 337 338 340 341 342 342 343 345 345 344 349 352 353 355 356 357
333 334 338 342 340 340 341 340 340 341 340 340 340 340 342 344 341 337 338 339 340 340 341 338 338 338 338 339 340 340 342 345 345 347 344 341 338 338 342 348 352 353 356
333 330 337 339 339 339 339 341 340 338 338 337 337 341 346 347 347 343 340 340 343 340 341 341 338 339 337 336 339 338 338 337 339 339 336 335 332 334 329 337 343 344 343
331 331 330 338 337 337 339 337 337 336 336 337 337 337 339 339 340 339 342 344 346 343 340 337 333 333 333 333 337 337 340 338 335 334 332 332 331 324 322 323 324 325 337
325 327 326 331 334 338 337 334 331 331 334 336 337 339 337 336 338 337 334 336 340 343 340 337 335 333 331 334 332 333 332 330 329 328 327 325 322 321 319 321 321 322 327
324 326 327 329 331 337 337 330 330 329 331 333 333 335 335 334 333 332 331 335 337 332 336 337 334 333 333 334 329 323 320 320 316 318 319 322 318 317 318 319 320 321 325
321 323 327 328 329 332 330 325 325 327 325 325 325 330 333 335 335 335 335 332 333 337 336 340 337 334 332 332 331 325 313 312 309 312 315 315 314 315 316 319 320 323 323
321 324 325 326 326 327 326 322 321 321 322 324 322 329 333 336 340 339 337 335 334 335 336 338 337 334 332 329 328 329 320 313 308 308 311 313 314 316 316 317 320 320 319
317 319 325 328 327 325 325 324 322 319 323 326 322 322 324 332 332 340 339 340 335 333 337 334 333 335 335 330 327 321 319 314 312 310 308 310 311 313 315 316 316 316 316
324 329 328 327 327 327 328 325 322 323 324 325 324 324 327 330 326 326 328 331 335 334 334 332 330 329 329 329 325 322 318 314 312 310 308 309 309 314 313 313 313 315 317
Wind_Speed
7 11 17 17 17 16 19 20 19 19 18 16 16 17 17 18 18 18 18 17 14 13 13 13 12 12 11 12 12 12 12 12 13 13 12 12 11 11 11 12 12 8 12
15 13 18 17 18 18 17 18 18 19 19 18 17 16 16 17 17 17 17 15 14 14 14 13 13 13 11 11 13 13 12 11 10 11 11 10 9 6 12 12 12 8 11
17 14 15 18 18 19 18 17 17 17 18 18 17 16 16 16 16 16 15 15 14 14 14 13 13 12 11 11 11 12 11 9 8 9 8 4 3 7 11 12 11 11 10
16 13 13 18 18 19 19 17 17 16 16 16 15 15 14 14 14 14 13 13 14 14 13 13 12 12 10 10 9 9 9 7 5 4 2 4 4 7 9 11 11 11 10
12 10 12 17 16 17 18 16 16 16 15 16 15 14 13 12 12 11 11 12 13 13 12 11 11 10 8 7 6 6 6 5 3 1 1 3 4 6 9 10 10 11 10
10 8 14 16 15 17 18 17 16 16 15 15 14 14 13 11 10 10 10 10 10 11 11 10 9 7 7 5 3 3 4 3 1 2 3 6 6 7 11 12 12 11 11
7 6 9 14 14 16 17 15 15 14 14 14 13 14 13 11 9 8 8 9 9 10 11 10 9 7 6 5 4 3 3 1 1 1 4 1 5 8 11 11 12 12 11
10 8 6 11 11 13 15 15 14 13 12 13 13 12 12 10 9 8 8 7 8 9 9 9 8 7 7 6 5 4 5 5 3 3 4 3 3 10 12 12 11 12 13
10 9 7 9 7 8 11 16 16 13 11 10 10 11 11 10 9 8 8 7 7 7 8 8 7 7 7 6 5 5 6 7 3 3 5 3 6 10 13 13 13 12 12
7 6 7 7 6 4 4 8 10 15 15 12 10 10 10 10 10 9 8 7 7 8 8 8 8 7 7 6 6 6 7 9 4 3 3 4 9 9 13 13 13 13 13
9 5 2 6 8 7 5 6 8 10 10 13 12 11 8 4 5 7 8 9 9 9 9 9 9 9 9 8 7 8 9 2 4 4 3 9 10 10 13 14 14 13 13
14 13 7 6 6 8 8 7 5 6 4 4 4 4 3 3 3 5 7 9 9 9 9 8 9 9 8 4 3 7 2 4 4 5 4 13 12 14 14 16 17 16 15
20 13 16 16 13 11 8 6 5 5 5 4 6 5 4 3 3 3 2 2 3 7 3 5 5 4 5 4 4 4 4 5 3 4 7 13 12 14 15 16 17 17 16
12 20 16 15 13 10 6 7 9 7 7 7 7 6 4 3 3 3 2 3 3 3 5 4 3 5 5 5 5 5 5 4 3 3 6 13 13 14 14 14 16 17 16
3 5 10 11 11 10 8 6 7 7 8 6 4 6 5 4 5 3 4 3 4 4 4 4 5 5 5 5 5 5 6 6 6 4 3 12 13 13 14 13 14 16 16
6 10 11 13 12 10 7 6 5 5 5 3 5 4 6 6 6 5 4 5 4 4 4 5 6 5 7 5 6 6 7 6 6 6 4 5 13 11 11 12 13 15 16
5 6 9 9 8 8 9 7 6 5 6 5 3 5 6 5 6 6 6 6 6 4 6 4 5 5 5 4 6 5 5 7 6 5 5 4 5 8 9 12 14 14 15
7 9 9 9 9 8 8 7 5 5 5 5 5 5 6 5 5 4 5 5 4 4 5 4 6 5 6 5 4 4 4 3 5 6 6 3 3 3 3 6 5 7 10
5 6 12 12 12 9 7 6 6 6 5 4 3 4 3 4 5 5 5 5 5 3 4 4 3 3 3 2 3 5 5 5 6 4 3 3 6 3 4 4 4 5 9
6 5 5 7 8 9 6 4 2 1 2 6 6 5 6 7 8 5 4 4 6 4 5 4 4 4 3 4 4 5 4 5 4 3 4 3 5 5 3 3 2 3 8
7 8 7 8 9 9 6 5 4 5 5 2 1 4 8 3 3 4 2 2 3 5 8 6 4 5 5 4 1 4 3 6 6 5 2 4 5 4 5 5 3 3 4
10 7 8 10 9 9 6 2 3 3 1 2 0 3 4 2 6 5 4 3 3 4 12 9 7 4 5 4 4 2 4 5 3 4 3 4 6 4 5 6 5 5 4
11 12 12 9 10 10 5 5 4 4 4 2 3 3 5 9 9 6 7 7 5 3 14 16 9 6 3 2 5 3 0 6 2 2 3 4 5 3 4 6 7 6 5
16 11 8 4 4 5 5 6 5 4 4 4 2 1 4 6 4 4 3 6 5 7 16 14 4 2 1 4 3 7 5 3 3 5 3 4 3 6 6 5 6 6 6
6 5 7 8 7 6 7 5 3 1 3 2 2 2 3 4 2 7 2 4 4 7 8 6 3 4 8 4 3 4 4 2 2 3 5 5 2 5 5 5 5 6 7
8 8 9 10 8 4 5 5 5 2 3 4 5 2 2 3 4 7 6 4 2 2 5 4 5 6 3 2 3 4 3 3 4 4 4 5 6 7 4 5 6 8 7
Wind_Direction
186 160 156 146 135 128 124 122 120 119 114 110 109 114 120 125 129 133 131 131 132 134 136 131 123 115 112 108 108 109 110 112 115 120 124 124 127 129 126 127 122 124 122
146 158 153 148 139 131 126 124 123 123 122 122 123 125 126 128 132 134 131 129 132 137 138 133 127 122 122 122 121 116 112 113 118 125 131 133 127 131 149 134 134 136 133
148 156 152 150 145 137 134 129 125 124 124 126 128 129 129 131 132 132 131 130 135 139 139 136 132 131 133 130 125 118 118 117 121 122 122 120 129 129 145 140 140 142 142
151 155 152 153 149 141 135 132 130 128 127 124 125 126 126 126 128 130 130 132 139 141 142 141 139 138 140 138 131 122 119 121 124 129 136 158 179 170 159 152 151 154 153
142 149 151 149 147 138 133 133 133 131 131 130 129 130 130 131 130 129 132 140 145 145 146 146 144 142 142 139 134 131 124 113 97 41 249 227 201 185 181 169 164 164 166
129 139 151 144 148 139 134 138 138 137 138 137 136 137 136 138 137 136 140 149 149 151 149 150 147 149 145 142 152 165 146 140 92 327 282 251 203 188 195 187 182 180 185
97 111 142 140 146 141 136 141 141 142 144 145 144 145 146 147 147 147 154 159 157 159 157 159 161 162 161 173 188 240 238 217 237 290 316 20 176 194 205 211 195 185 184
103 99 121 130 143 144 142 147 148 147 148 148 148 151 150 152 155 163 167 168 169 165 169 173 173 176 183 202 210 237 274 294 340 321 320 340 227 191 207 226 217 197 196
106 111 132 145 144 152 158 158 152 147 149 153 153 156 160 163 169 174 178 178 181 178 178 184 189 194 202 220 248 270 286 294 306 315 319 331 315 226 214 223 227 218 210
75 93 131 134 140 134 142 161 161 157 156 156 162 165 174 174 181 188 192 198 194 192 191 193 203 217 224 232 255 273 285 298 316 305 281 280 290 260 227 230 231 229 226
118 103 102 158 155 159 155 171 159 170 169 163 166 170 173 183 194 201 204 209 205 209 206 204 208 215 226 236 244 262 273 268 280 266 245 265 267 264 248 241 237 235 234
153 159 174 182 183 172 164 154 142 159 143 149 160 172 165 178 206 204 215 222 223 222 222 221 226 229 232 233 251 260 251 261 259 255 258 266 256 254 248 239 236 231 230
166 166 177 171 184 179 178 172 158 157 153 162 169 173 174 184 208 223 222 226 229 238 238 237 246 234 233 225 236 233 246 255 253 254 260 258 255 259 257 250 244 236 231
189 168 176 176 173 190 167 166 171 173 175 184 185 171 166 178 208 232 236 232 237 230 236 236 246 250 248 249 247 264 258 254 256 263 265 274 270 269 264 249 242 240 241
106 162 169 166 167 177 160 166 178 181 174 182 166 178 173 174 203 201 227 224 234 227 224 231 241 256 257 254 252 243 249 246 245 251 258 269 267 265 272 259 238 241 247
158 176 172 179 182 163 155 153 179 191 166 151 169 197 190 194 207 203 207 220 234 232 248 234 230 238 246 235 243 233 242 237 249 243 243 269 265 252 241 250 255 254 256
174 165 167 139 147 152 153 164 164 203 127 158 198 169 204 208 232 214 210 214 225 217 230 247 251 237 249 240 246 238 245 254 249 253 247 258 275 265 255 247 249 255 263
161 173 156 165 163 150 160 158 157 166 150 155 173 162 204 201 211 242 265 248 235 219 230 221 235 245 245 231 253 256 255 248 257 256 200 229 268 273 304 267 273 279 278
233 194 172 174 171 157 148 157 163 162 154 151 113 106 142 214 219 202 211 232 229 211 232 225 232 214 221 262 294 282 268 265 255 244 242 238 244 218 233 253 284 320 314
190 221 213 177 158 147 138 115 92 244 231 166 159 148 168 204 201 211 223 210 234 100 272 233 215 235 245 242 253 269 288 263 255 236 257 241 229 225 270 281 293 284 286
188 200 201 185 179 164 162 158 158 186 227 211 300 199 202 167 257 246 196 317 16 318 259 228 235 240 246 215 338 291 291 248 241 249 239 250 245 253 262 259 237 237 285
207 213 205 198 187 189 181 150 144 149 182 21 80 206 205 155 235 255 246 180 73 27 305 238 224 234 253 171 192 2 319 316 324 261 228 228 245 264 271 267 277 261 248
196 203 211 208 188 191 157 89 47 55 34 342 250 235 237 238 244 226 208 205 153 133 248 253 217 229 268 32 242 137 80 240 304 323 247 235 253 258 268 277 278 274 263
214 208 193 148 94 88 111 102 114 148 174 207 197 192 230 219 240 262 259 145 144 186 241 256 229 269 262 277 204 250 223 191 196 310 322 296 284 274 266 276 273 282 273
107 97 75 86 99 116 115 140 149 225 270 119 117 303 333 292 315 336 297 273 183 222 232 234 220 168 219 189 197 213 228 197 180 183 281 297 299 255 253 252 266 274 272
104 98 89 81 46 79 108 132 133 22 15 25 9 139 3 24 36 39 25 34 317 228 246 256 180 157 228 234 240 243 201 205 225 190 222 261 262 279 244 247 250 258 263